Fort Lauderdale, FL

5:50 PM EDT on September 22, 2017 (GMT -0400)
Fort Lauderdale Executive

Weather History for KFXE - October, 2013

Change the Weather History Date:

Tuesday, October 22, 2013

  Actual Average Record
Temperature  
Mean Temperature 82 °F -  
Max Temperature 90 °F 85 °F 93 °F (1950)
Min Temperature 75 °F 69 °F 50 °F (1961)
Cooling Degree Days 18    
Growing Degree Days 32 (Base 50)    
Moisture  
Dew Point 75 °F    
Average Humidity 79    
Maximum Humidity 94    
Minimum Humidity 57    
Precipitation  
Precipitation 0.00 in - - ()
Sea Level Pressure  
Sea Level Pressure 29.92 in    
Wind  
Wind Speed 4 mph (South)    
Max Wind Speed 15 mph    
Max Gust Speed 18 mph    
Visibility 10 miles    
Events      
Averages and records for this station are not official NWS values.
T = Trace of Precipitation, MM = Missing Value Source: NWS Daily Summary

Daily Weather History Graph

Daily Weather History Graph

Search for Another Location

Airport or City:

Trip Planner

Search our weather history database for the weather conditions in past years. The results will help you decide how hot, cold, wet, or windy it might be!

Date:

Astronomy

Oct. 22, 2013 Rise Set
Actual Time 7:23 AM EDT 6:46 PM EDT
Civil Twilight 7:00 AM EDT 7:09 PM EDT
Nautical Twilight 6:33 AM EDT 7:36 PM EDT
Astronomical Twilight 6:06 AM EDT 8:03 PM EDT
Moon 9:39 PM EDT 10:36 AM EDT
Length of Visible Light 12h 09m
Length of Day
11h 22m
Waning Gibbous, 87% of the Moon is Illuminated
Oct 22
Waning Gibbous
Oct 26
Last Quarter
Nov 3
New
Nov 10
First Quarter
Nov 17
Full

Hourly Weather History & Observations

Time (EDT) Temp. Heat Index Dew Point Humidity Pressure Visibility Wind Dir Wind Speed Gust Speed Precip Events Conditions
12:53 AM 78.1 °F - 75.9 °F 93% 29.97 in 10.0 mi ESE 3.5 mph - N/A   Clear
1:53 AM 78.1 °F - 75.0 °F 90% 29.96 in 10.0 mi Calm Calm - N/A   Clear
2:53 AM 78.1 °F - 75.0 °F 90% 29.96 in 10.0 mi Calm Calm - N/A   Clear
3:53 AM 78.1 °F - 75.0 °F 90% 29.94 in 10.0 mi Calm Calm - N/A   Clear
4:53 AM 77.0 °F - 75.0 °F 94% 29.94 in 10.0 mi Calm Calm - N/A   Clear
5:53 AM 77.0 °F - 75.0 °F 94% 29.94 in 10.0 mi Calm Calm - N/A   Clear
6:53 AM 75.9 °F - 73.9 °F 94% 29.95 in 10.0 mi Calm Calm - N/A   Partly Cloudy
7:53 AM 75.9 °F - 73.9 °F 94% 29.94 in 10.0 mi Calm Calm - N/A   Clear
8:53 AM 82.0 °F 89.4 °F 75.9 °F 82% 29.96 in 10.0 mi Calm Calm - N/A   Partly Cloudy
9:53 AM 82.9 °F 90.8 °F 75.9 °F 79% 29.96 in 10.0 mi Variable 4.6 mph - N/A   Scattered Clouds
10:53 AM 86.0 °F 93.8 °F 73.9 °F 67% 29.95 in 10.0 mi SSE 8.1 mph - N/A   Partly Cloudy
11:53 AM 87.1 °F 97.3 °F 75.9 °F 69% 29.94 in 10.0 mi SE 10.4 mph - N/A   Scattered Clouds
12:06 PM 87.8 °F 97.6 °F 75.2 °F 66% 29.93 in 10.0 mi SSE 10.4 mph - N/A   Scattered Clouds
12:53 PM 86.0 °F 93.8 °F 73.9 °F 67% 29.92 in 10.0 mi SE 12.7 mph 18.4 mph N/A   Mostly Cloudy
1:53 PM 88.0 °F 98.5 °F 75.9 °F 67% 29.90 in 10.0 mi SE 15.0 mph - N/A   Scattered Clouds
2:53 PM 88.0 °F 97.5 °F 75.0 °F 65% 29.88 in 10.0 mi South 11.5 mph - N/A   Scattered Clouds
3:53 PM 90.0 °F 97.9 °F 73.0 °F 57% 29.87 in 10.0 mi South 8.1 mph - N/A   Scattered Clouds
4:53 PM 90.0 °F 97.9 °F 73.0 °F 57% 29.86 in 10.0 mi South 10.4 mph - N/A   Scattered Clouds
5:53 PM 86.0 °F 96.0 °F 75.9 °F 72% 29.86 in 10.0 mi SE 8.1 mph - N/A   Scattered Clouds
6:53 PM 84.0 °F 93.7 °F 77.0 °F 79% 29.86 in 10.0 mi SSE 6.9 mph - N/A   Scattered Clouds
7:53 PM 82.9 °F 90.8 °F 75.9 °F 79% 29.86 in 10.0 mi South 6.9 mph - N/A   Clear
8:53 PM 82.9 °F 90.8 °F 75.9 °F 79% 29.88 in 10.0 mi South 5.8 mph - N/A   Clear
9:53 PM 82.9 °F 90.8 °F 75.9 °F 79% 29.89 in 10.0 mi SW 5.8 mph - N/A   Mostly Cloudy
10:53 PM 81.0 °F 86.7 °F 75.0 °F 82% 29.90 in 10.0 mi WSW 4.6 mph - N/A   Scattered Clouds
11:24 PM 82.4 °F 89.5 °F 75.2 °F 79% 29.89 in 10.0 mi WSW 5.8 mph - N/A   Overcast
11:53 PM 81.0 °F 87.3 °F 75.9 °F 85% 29.90 in 10.0 mi WSW 5.8 mph - N/A   Scattered Clouds